Date,TemperatureHighF,TemperatureAvgF,TemperatureLowF,DewpointHighF,DewpointAvgF,DewpointLowF,HumidityHigh,HumidityAvg,HumidityLow,PressureMaxIn,PressureMinIn,WindSpeedMaxMPH,WindSpeedAvgMPH,GustSpeedMaxMPH,PrecipitationSumIn
2013-4-1,46.1,34.2,26.5,40.1,26.6,16.3,89,74,50,30.01,29.60,22,8,35,0.04
2013-4-2,31.4,27.5,23.4,24.9,18.6,13.8,84,69,57,30.18,30.01,24,9,36,0.00
2013-4-3,35.0,29.0,25.1,24.9,18.5,15.7,77,65,49,30.45,30.18,16,6,23,0.00
2013-4-4,50.2,34.5,21.8,24.2,17.9,12.4,81,54,27,30.40,29.96,12,3,17,0.00
2013-4-5,42.9,36.8,29.0,27.7,20.8,13.9,67,52,40,30.20,29.92,14,4,21,0.00
2013-4-6,52.5,37.1,18.8,23.2,16.8,12.2,91,49,21,30.35,30.02,10,2,15,0.00
2013-4-7,66.8,54.0,41.3,45.7,34.0,18.0,80,49,31,30.06,29.73,29,9,43,0.00
2013-4-8,66.9,49.3,29.7,52.1,37.9,26.0,90,67,37,30.12,29.77,18,3,32,0.02
2013-4-9,66.4,50.7,42.6,52.1,43.0,38.6,92,76,49,30.14,29.77,24,6,33,1.02
2013-4-10,49.2,44.0,39.5,47.0,41.8,37.4,93,92,91,30.04,29.84,13,5,22,0.50
2013-4-11,39.5,35.1,32.3,37.4,31.7,29.3,92,87,75,30.12,29.90,16,8,25,0.55
2013-4-12,54.2,40.0,34.2,50.7,36.7,31.3,93,88,76,29.90,29.51,21,9,31,0.56
2013-4-13,43.7,40.0,37.6,35.4,33.4,30.3,85,77,66,29.98,29.80,22,12,31,0.02
2013-4-14,46.9,40.2,34.0,32.1,29.3,25.3,81,66,46,30.19,29.97,16,5,26,0.01
2013-4-15,73.0,57.7,37.4,48.1,41.2,29.3,75,56,39,30.15,29.99,15,4,22,0.00
2013-4-16,64.6,56.5,44.9,56.9,49.2,42.3,91,78,57,30.24,29.95,17,7,25,0.31
2013-4-17,56.9,46.9,34.1,42.5,35.3,30.9,92,66,44,30.37,30.17,12,4,18,0.00
2013-4-18,84.3,66.1,46.5,60.7,50.7,34.2,77,58,44,30.20,29.66,18,8,34,0.00
2013-4-19,73.9,56.7,40.0,58.1,46.3,30.5,87,69,50,29.77,29.36,28,12,43,0.11
2013-4-20,40.7,36.2,31.1,31.4,26.7,21.5,84,68,54,30.45,29.76,25,11,35,0.01
2013-4-21,46.1,35.3,22.1,26.5,22.8,18.7,90,62,43,30.71,30.45,13,3,17,0.01
2013-4-22,63.6,49.0,33.9,29.5,25.4,21.4,64,43,23,30.60,30.32,13,4,23,0.00
2013-4-23,69.4,54.7,40.3,39.1,32.2,24.7,63,44,29,30.32,29.92,10,3,17,0.00
2013-4-24,67.9,53.2,36.8,54.7,42.3,31.8,90,69,38,30.07,29.59,20,8,29,0.36
2013-4-25,53.2,43.2,36.4,37.8,33.8,29.4,88,72,42,30.35,30.07,17,5,29,0.05
2013-4-26,52.4,41.5,34.7,38.6,33.8,29.3,91,76,44,30.51,30.35,10,2,15,0.00
2013-4-27,71.2,64.5,49.9,39.6,34.8,30.9,56,34,25,30.42,30.20,8,2,12,0.00
2013-4-28,73.3,59.8,50.9,48.1,40.5,34.8,77,52,26,30.20,29.97,18,6,29,0.07
2013-4-29,66.2,58.6,51.5,52.8,48.8,44.8,81,70,60,30.03,29.93,16,5,23,0.04
2013-4-30,70.5,61.0,57.9,54.2,51.8,50.0,79,72,55,30.13,30.02,10,4,17,0.00